Location: Arroyo del Hoyo
(41.0000°N, 4.2333°W)
Time: 21:08:12
(UTC+00:00)

Daily predictions for brighter satellites

Satellite Brightness Start Highest point End
(mag) Time Altitude Azimuth Time Altitude Azimuth Time Altitude Azimuth
Cosmos 1953 2.8 17:41:37 10° NNE 17:45:00 32° ENE 17:48:21 10° SE
NOSS 0 Rocket 4.0 17:40:21 10° SSW 17:46:29 84° ESE 17:52:41 10° NNE
CZ-2D R/B 3.7 17:42:29 10° S 17:46:44 81° WSW 17:51:00 10° NNW
Lacrosse 5 3.1 17:42:15 10° NW 17:47:09 49° SW 17:52:02 10° SSE
SKYMED 2 4.3 17:47:53 10° NNE 17:51:51 33° E 17:55:47 10° SSE
ATLAS 2AS CENTAUR R/B 3.8 17:48:24 10° NNW 17:53:32 22° NNE 17:58:34 10° E
COSMOS 2428 3.6 17:48:22 10° SW 17:53:53 51° WNW 17:59:26 10° NNE
ACS3 Solar Sail 2.6 17:49:13 10° SE 17:54:42 31° ENE 18:00:12 10° N
IGS 5A 3.4 17:51:32 10° SSE 17:55:29 62° ENE 17:59:28 10° N
USA 267 4.1 17:50:59 10° SSE 17:57:22 56° SW 18:03:47 10° NW
Cosmos 990 Rocket 4.0 17:54:17 10° NNW 17:59:32 84° ENE 18:04:46 10° SSE
Cosmos 1174 4.0 17:57:20 10° NNW 18:01:02 50° ENE 18:05:32 10° SE
AQUARIUS 4.1 17:57:59 10° SSE 18:02:23 87° E 18:06:51 10° NNW
Cosmos 1634 Rocket 4.4 17:57:05 10° NNW 18:03:23 72° W 18:09:38 10° S
DNEPR-1 R/B 4.0 18:00:28 10° NNW 18:04:57 41° NE 18:08:58 10° ESE
Delta 2 Rocket 4.2 18:06:06 10° SW 18:08:57 27° S 18:11:41 10° ESE
Okean 3 3.4 18:06:50 10° S 18:10:54 84° W 18:15:02 10° N
Meteor 1-31 Rocket 3.5 18:08:02 10° SE 18:11:02 26° ENE 18:14:05 10° NNE
Meteor 1-16 Rocket 4.2 18:06:08 10° N 18:11:39 87° W 18:17:19 10° S
Cosmos 1707 Rocket 3.6 18:07:14 10° S 18:11:40 88° ESE 18:16:08 10° N
Okean 2 3.2 18:10:47 10° S 18:14:43 84° E 18:18:41 10° N
EO 1 Delta rocket 4.0 18:11:13 10° NNE 18:15:43 48° E 18:20:18 10° S
Cosmos 2142 Rocket 4.5 18:12:14 10° N 18:18:29 83° E 18:24:48 10° S
CZ-4 R/B 4.3 18:14:49 10° SSE 18:18:45 61° ENE 18:22:43 10° N
Cosmos 1937 Rocket 3.9 18:15:56 10° N 18:20:44 38° ENE 18:25:31 10° SE
BREEZE-M DEB (TANK) 4.4 18:04:16 10° WSW 18:24:55 75° NNW 18:28:55 17° NE
Cosmos 1825 4.0 18:23:03 10° SE 18:23:11 11° SE 18:23:11 11° SE
Cosmos 1943 Rocket 2.2 18:23:55 10° NNW 18:29:36 90° NE 18:35:12 10° SSE
Cosmos 1862 Rocket 4.0 18:25:18 10° SSW 18:29:37 65° W 18:33:59 10° N
RESURS DK-1 2.2 18:26:09 10° NNW 18:30:12 79° ENE 18:34:13 10° SSE
Cosmos 2237 Rocket 2.6 18:25:09 10° SW 18:30:47 64° WNW 18:36:28 10° NNE
BlueWalker 3 3.6 18:30:56 10° NNW 18:33:26 17° NNE 18:33:53 17° NNE
CZ-4B R/B 3.6 18:33:14 10° SSE 18:36:48 55° ENE 18:40:17 10° N
ISS -2.2 18:34:32 10° W 18:37:27 27° NNW 18:39:01 19° NNE
NOAA 6 4.0 18:33:38 10° SSE 18:38:39 63° ENE 18:43:42 10° N
COSMO-SKYMED 1 2.8 18:35:41 10° N 18:40:01 70° WNW 18:44:20 10° SSW
Cosmos 2344 4.5 18:34:02 10° WSW 18:41:11 41° NW 18:48:03 10° NNE
Cosmos 2278 Rocket 3.1 18:38:27 10° NNW 18:43:56 52° WSW 18:49:23 10° S
YAOGAN 1 2.4 18:43:07 10° SSE 18:47:20 65° ENE 18:51:35 10° N
CZ-4C R/B 2.3 18:44:50 10° SW 18:49:00 56° NW 18:53:05 16° NNE
Nadezhda 4 Rocket 4.0 18:44:30 10° S 18:50:37 82° W 18:56:47 10° N
ATLAS 5 CENTAUR R/B 0.8 18:50:41 10° SW 18:53:49 74° NW 18:54:38 46° NNE
YAOGAN 11 4.0 18:51:31 23° NNE 18:54:05 60° ESE 18:58:18 10° S
Landsat 7 4.2 18:50:28 10° S 18:55:07 65° W 18:59:47 10° NNW
Cosmos 2195 Rocket 4.4 18:49:02 10° S 18:55:11 69° E 19:01:18 10° NNE
Meteor 1-24 Rocket 4.2 18:49:57 10° SSE 18:55:19 39° E 18:58:08 25° NE
Cosmos 1703 Rocket 3.4 18:53:56 10° S 18:58:21 79° E 19:02:12 14° N
SPOT 1/Viking Rocket 3.5 18:53:35 10° SSE 18:58:37 56° ENE 19:03:39 10° N
Resurs 1-3 3.5 18:58:54 10° SSE 19:03:08 58° ENE 19:07:23 10° N
Meteor 2-5 Rocket 4.0 19:00:30 10° SSE 19:05:53 45° E 19:07:38 35° NE
Cosmos 1703 3.5 19:05:15 10° SSW 19:08:43 58° W 19:10:32 25° N
Cosmos 841 Rocket 4.3 19:04:48 10° SW 19:09:53 51° WNW 19:15:01 10° N
Cosmos 1898 Rocket 4.3 19:07:36 10° NNW 19:12:44 53° WSW 19:17:52 10° S
Cosmos 1656 Rocket 3.7 19:08:44 10° NNW 19:14:07 52° ENE 19:14:50 49° E
Cosmos 1900 4.4 19:11:30 10° S 19:15:59 51° SE 19:15:59 51° SE
Cosmos 1814 Rocket 4.0 19:14:45 10° S 19:19:55 58° ESE 19:20:12 58° E
SL-16 R/B 2.1 19:14:20 10° SSW 19:19:59 86° WNW 19:22:50 31° NNE
Cosmos 1437 Rocket 3.8 19:20:30 10° S 19:22:39 33° S 19:22:39 33° S
CBERS 1 LM4 rocket 4.4 19:32:04 31° SSE 19:34:34 87° ENE 19:39:50 10° NNW
Cosmos 1818 3.4 19:31:02 10° NNW 19:36:31 89° ENE 19:37:01 75° SE
Cosmos 1092 Rocket 4.1 19:30:29 10° SSW 19:36:37 72° W 19:42:51 10° N
ACS3 Solar Sail 3.0 19:31:58 10° SSW 19:38:00 44° W 19:44:06 10° NNW
Cosmos 2369 Rocket 3.0 19:35:11 10° NNW 19:38:45 37° N 19:38:45 37° N
ATLAS 2AS CENTAUR R/B 2.5 19:38:38 10° NNW 19:45:26 85° ENE 19:46:36 64° SE
Cosmos 839 Rocket 4.1 19:44:31 10° SW 19:51:15 75° WNW 19:52:33 57° N
Cosmos 1867 4.4 19:51:31 10° SSW 19:55:00 41° SSW 19:55:00 41° SSW
Cosmos 2297 4.3 19:58:07 10° NNW 20:02:16 49° NNW 20:02:16 49° NNW
